WD4LSS Weather Reports


time (UTC)temp
F
wind
direction
speed
knots
gust
knots
rain 1hr
in
rain 24hr
in
rain mn
in
humidity
%
barometer
mb
20260510202016 85 180 0.9 3.5 0.00 0.00 0.00 34 1015.3
20260510201516 85 270 0.9 3.5 0.00 0.00 0.00 32 1015.4
20260510201016 84 248 1.7 6.1 0.00 0.00 0.00 31 1015.3
20260510200516 84 248 1.7 7.0 0.00 0.00 0.00 33 1015.5
20260510200016 83 113 0.9 2.6 0.00 0.00 0.00 37 1015.5
20260510195516 84 113 0.9 4.3 0.00 0.00 0.00 33 1015.6
20260510195016 84 315 0.9 3.5 0.00 0.00 0.00 31 1015.6
20260510194516 83 135 0.9 3.5 0.00 0.00 0.00 33 1015.6
20260510194016 83 315 1.7 4.3 0.00 0.00 0.00 40 1015.8
20260510193516 83 315 3.5 9.6 0.00 0.00 0.00 34 1015.8
20260510193036 83 293 3.5 10.4 0.00 0.00 0.00 30 1015.7
20260510192516 83 315 1.7 4.3 0.00 0.00 0.00 32 1015.8
20260510192016 83 113 0.9 2.6 0.00 0.00 0.00 34 1015.9
20260510191516 84 135 0.9 5.2 0.00 0.00 0.00 34 1015.9
20260510191016 84 135 0.9 2.6 0.00 0.00 0.00 35 1016.0
20260510190516 84 0.0 2.6 0.00 0.00 0.00 34 1016.0
20260510190016 83 248 0.9 2.6 0.00 0.00 0.00 31 1016.0
20260510185516 83 248 0.9 3.5 0.00 0.00 0.00 35 1016.0
20260510185016 83 248 0.9 3.5 0.00 0.00 0.00 34 1016.1
20260510184516 83 315 2.6 7.0 0.00 0.00 0.00 34 1016.0
20260510184016 83 0 1.7 4.3 0.00 0.00 0.00 34 1016.0
20260510183516 82 158 0.9 3.5 0.00 0.00 0.00 38 1016.2
20260510183036 82 315 1.7 5.2 0.00 0.00 0.00 32 1016.1
20260510182516 82 315 1.7 5.2 0.00 0.00 0.00 34 1016.1
20260510182016 82 315 1.7 6.1 0.00 0.00 0.00 32 1016.2
20260510181516 82 315 0.9 4.3 0.00 0.00 0.00 38 1016.2
20260510181016 81 315 1.7 6.1 0.00 0.00 0.00 38 1016.3
20260510180516 81 338 1.7 4.3 0.00 0.00 0.00 34 1016.4
20260510180016 81 293 1.7 5.2 0.00 0.00 0.00 36 1016.4
20260510175516 80 0 1.7 4.3 0.00 0.00 0.00 38 1016.5
20260510175016 81 315 2.6 6.1 0.00 0.00 0.00 37 1016.5
20260510174516 81 315 1.7 4.3 0.00 0.00 0.00 35 1016.5
20260510174016 81 315 1.7 6.1 0.00 0.00 0.00 36 1016.5
20260510173536 81 315 2.6 7.0 0.00 0.00 0.00 36 1016.5
20260510173016 80 293 2.6 7.8 0.00 0.00 0.00 39 1016.7
20260510172516 80 315 0.9 5.2 0.00 0.00 0.00 39 1016.7
20260510172016 80 315 0.9 3.5 0.00 0.00 0.00 39 1016.7
20260510171516 80 315 1.7 6.1 0.00 0.00 0.00 39 1016.7
20260510171036 80 315 1.7 3.5 0.00 0.00 0.00 40 1016.7
20260510170516 80 338 0.9 3.5 0.00 0.00 0.00 43 1016.8
20260510170016 79 0.0 1.7 0.00 0.00 0.00 37 1016.8
20260510165516 79 338 1.7 5.2 0.00 0.00 0.00 38 1016.7
20260510165016 80 315 2.6 6.1 0.00 0.00 0.00 38 1016.8
20260510164516 79 293 0.9 3.5 0.00 0.00 0.00 42 1016.8
20260510164036 79 113 0.9 3.5 0.00 0.00 0.00 40 1016.9
20260510163516 79 113 3.5 7.0 0.00 0.00 0.00 39 1016.9
20260510163036 78 90 0.9 4.3 0.00 0.00 0.00 42 1016.9
20260510162516 78 0 1.7 7.8 0.00 0.00 0.00 43 1017.0
20260510162016 78 338 1.7 5.2 0.00 0.00 0.00 48 1017.0
20260510161516 78 113 0.9 7.8 0.00 0.00 0.00 48 1017.0
20260510161016 78 315 0.9 5.2 0.00 0.00 0.00 49 1017.0
20260510160516 77 338 0.9 2.6 0.00 0.00 0.00 48 1017.0
20260510160016 77 338 1.7 4.3 0.00 0.00 0.00 48 1017.0
20260510155516 77 338 1.7 3.5 0.00 0.00 0.00 49 1017.1
20260510155016 77 338 1.7 4.3 0.00 0.00 0.00 48 1017.1
20260510154516 77 293 1.7 6.1 0.00 0.00 0.00 50 1017.2
20260510154015 77 270 2.6 7.8 0.00 0.00 0.00 51 1017.1
20260510153536 76 315 2.6 4.3 0.00 0.00 0.00 50 1017.1
20260510153016 76 113 0.9 3.5 0.00 0.00 0.00 54 1017.2
20260510152516 76 293 1.7 4.3 0.00 0.00 0.00 53 1017.2
20260510152016 75 338 1.7 5.2 0.00 0.00 0.00 52 1017.1
20260510151535 75 338 1.7 4.3 0.00 0.00 0.00 53 1017.1
20260510151016 75 338 1.7 5.2 0.00 0.00 0.00 54 1017.2
20260510150536 75 293 0.9 2.6 0.00 0.00 0.00 60 1017.2
20260510150035 74 315 1.7 3.5 0.00 0.00 0.00 58 1017.2
20260510145516 74 315 0.9 2.6 0.00 0.00 0.00 57 1017.3
20260510145015 74 315 0.9 3.5 0.00 0.00 0.00 59 1017.2
20260510144515 73 338 0.9 3.5 0.00 0.00 0.00 59 1017.2
20260510144016 73 293 0.9 3.5 0.00 0.00 0.00 59 1017.3
20260510143516 72 0 0.9 2.6 0.00 0.00 0.00 64 1017.3
20260510143016 72 315 0.9 2.6 0.00 0.00 0.00 65 1017.3
20260510142516 72 315 0.9 2.6 0.00 0.00 0.00 65 1017.4
20260510142016 71 315 0.9 2.6 0.00 0.00 0.00 64 1017.3
20260510141516 70 0.0 0.9 0.00 0.00 0.00 68 1017.2
20260510141035 69 0.0 1.7 0.00 0.00 0.00 71 1017.3
20260510140516 69 315 0.9 1.7 0.00 0.00 0.00 70 1017.2
20260510140015 68 293 0.9 3.5 0.00 0.00 0.00 71 1017.3
20260510135515 68 338 0.9 3.5 0.00 0.00 0.00 71 1017.2
20260510135015 67 338 0.9 3.5 0.00 0.00 0.00 74 1017.3
20260510134516 66 315 0.9 2.6 0.00 0.00 0.00 74 1017.2
20260510134036 65 315 0.9 3.5 0.00 0.00 0.00 76 1017.2
20260510133515 65 315 0.9 1.7 0.00 0.00 0.00 78 1017.2
20260510133015 64 0.0 2.6 0.00 0.00 0.00 82 1017.1
20260510132515 63 270 0.9 3.5 0.00 0.00 0.00 83 1017.0
20260510132015 63 0.0 1.7 0.00 0.00 0.00 84 1017.0
20260510131535 62 315 0.9 2.6 0.00 0.00 0.00 86 1017.0
20260510131035 61 338 0.9 1.7 0.00 0.00 0.00 89 1017.0
20260510130515 61 0.0 1.7 0.00 0.00 0.00 90 1016.9
20260510130015 60 0.0 1.7 0.00 0.00 0.00 91 1016.9
20260510125515 60 338 0.9 2.6 0.00 0.00 0.00 93 1017.0
20260510125035 59 315 0.9 3.5 0.00 0.00 0.00 95 1017.0
20260510124515 58 315 1.7 3.5 0.00 0.00 0.00 97 1017.0
20260510124017 58 0.0 0.9 0.00 0.00 0.00 98 1016.8
20260510123517 57 0.0 0.9 0.00 0.00 0.00 98 1016.9
20260510123017 57 0 0.9 1.7 0.00 0.00 0.00 99 1016.7
20260510122517 56 0.0 1.7 0.00 0.00 0.00 98 1016.6
20260510122017 56 0.0 0.9 0.00 0.00 0.00 98 1016.5
20260510121517 55 0.0 0.0 0.00 0.00 0.00 98 1016.5
20260510121017 55 0.0 0.0 0.00 0.00 0.00 98 1016.5
20260510120537 54 0.0 0.0 0.00 0.00 0.00 98 1016.3
20260510120037 54 0.0 0.0 0.00 0.00 0.00 98 1015.9
20260510115517 54 0.0 0.0 0.00 0.00 0.00 98 1016.0
20260510115017 54 0.0 0.0 0.00 0.00 0.00 97 1015.9
20260510114517 53 0.0 0.0 0.00 0.00 0.00 97 1015.9
20260510114017 53 0.0 0.9 0.00 0.00 0.00 98 1015.8
20260510113517 53 0.0 0.0 0.00 0.00 0.00 97 1015.7
20260510113017 53 0.0 0.0 0.00 0.00 0.00 97 1015.7
20260510112517 53 0.0 0.0 0.00 0.00 0.00 96 1015.6
20260510112017 52 0.0 0.0 0.00 0.00 0.00 96 1015.5
20260510111517 52 0.0 0.0 0.00 0.00 0.00 96 1015.5
20260510111017 52 0.0 0.0 0.00 0.00 0.00 96 1015.4
20260510110537 52 0.0 0.0 0.00 0.00 0.00 95 1015.3
20260510110017 52 0.0 0.0 0.00 0.00 0.00 95 1015.3
20260510105517 52 0.0 0.0 0.00 0.00 0.00 95 1015.1
20260510105017 52 0.0 0.0 0.00 0.00 0.00 95 1015.1
20260510104517 52 0.0 0.0 0.00 0.00 0.00 94 1015.0
20260510104017 52 0.0 0.0 0.00 0.00 0.00 94 1014.8
20260510103537 52 0.0 0.0 0.00 0.00 0.00 94 1014.7
20260510103037 52 0.0 0.0 0.00 0.00 0.00 94 1014.7
20260510102517 52 0.0 0.0 0.00 0.00 0.00 94 1014.7
20260510102017 53 0.0 0.0 0.00 0.00 0.00 94 1014.5
20260510101517 53 0.0 0.0 0.00 0.00 0.00 94 1014.3
20260510101017 53 0.0 0.0 0.00 0.00 0.00 94 1014.4
20260510100517 53 0.0 0.0 0.00 0.00 0.00 94 1014.3
20260510100037 53 0.0 0.0 0.00 0.00 0.00 94 1014.1
20260510095537 53 0.0 0.0 0.00 0.00 0.00 94 1014.0
20260510095025 54 0.0 0.0 0.00 0.00 0.00 94 1014.1
20260510094525 54 0.0 0.0 0.00 0.00 0.00 94 1014.1
20260510094025 54 0.0 0.0 0.00 0.00 0.00 94 1014.0
20260510093525 54 0.0 0.0 0.00 0.00 0.00 94 1014.1
20260510093025 54 0.0 0.0 0.00 0.00 0.00 94 1014.0
20260510092525 54 0.0 0.0 0.00 0.00 0.00 94 1014.1
20260510092025 54 0.0 0.0 0.00 0.00 0.00 94 1014.0
20260510091525 55 0.0 0.0 0.00 0.00 0.00 94 1014.0
20260510091045 55 0.0 0.0 0.00 0.00 0.00 94 1014.0
20260510090525 55 0.0 0.0 0.00 0.00 0.00 94 1014.0
20260510090017 55 0.0 0.0 0.00 0.00 0.00 94 1014.0
20260510085517 55 0.0 0.0 0.00 0.00 0.00 94 1013.9
20260510085017 55 0.0 0.0 0.00 0.00 0.00 94 1013.9
20260510084517 55 0.0 0.0 0.00 0.00 0.00 94 1013.7
20260510084017 55 0.0 0.0 0.00 0.00 0.00 94 1013.6
20260510083537 55 0.0 0.0 0.00 0.00 0.00 94 1013.6
20260510083017 55 0.0 0.0 0.00 0.00 0.00 94 1013.5
20260510082516 55 0.0 0.0 0.00 0.00 0.00 94 1013.6
20260510082017 56 0.0 0.0 0.00 0.00 0.00 94 1013.5
20260510081517 56 0.0 0.0 0.00 0.00 0.00 94 1013.4
20260510081017 56 0.0 0.0 0.00 0.00 0.00 94 1013.4
20260510080517 56 0.0 0.0 0.00 0.00 0.00 94 1013.3
20260510080017 56 0.0 0.0 0.00 0.00 0.00 94 1013.3
20260510075517 56 0.0 0.0 0.00 0.00 0.00 94 1013.3
20260510075017 56 0.0 0.0 0.00 0.00 0.00 94 1013.2
20260510074517 56 0.0 0.0 0.00 0.00 0.00 94 1013.1
20260510074017 56 0.0 0.0 0.00 0.00 0.00 94 1013.1
20260510073517 56 0.0 0.0 0.00 0.00 0.00 94 1013.2
20260510073016 57 0.0 0.0 0.00 0.00 0.00 94 1013.0
20260510072517 57 0.0 0.0 0.00 0.00 0.00 94 1013.1
20260510072017 57 0.0 0.0 0.00 0.00 0.00 94 1013.2
20260510071517 57 0.0 0.0 0.00 0.00 0.00 94 1013.0
20260510071036 57 0.0 0.0 0.00 0.00 0.00 94 1013.1
20260510070536 57 0.0 0.0 0.00 0.00 0.00 94 1012.9
20260510070017 57 0.0 0.0 0.00 0.00 0.00 94 1012.9
20260510065537 57 0.0 0.0 0.00 0.00 0.00 94 1013.0
20260510065016 57 0.0 0.0 0.00 0.00 0.00 94 1013.0
20260510064542 57 0.0 0.0 0.00 0.00 0.00 94 1012.8
20260510064022 57 0.0 0.0 0.00 0.00 0.00 94 1013.1
20260510063522 57 0.0 0.0 0.00 0.00 0.00 94 1013.1
20260510063022 57 0.0 0.0 0.00 0.00 0.00 94 1012.9
20260510062523 58 0.0 0.0 0.00 0.00 0.00 93 1012.9
20260510062022 58 0.0 0.0 0.00 0.00 0.00 93 1013.0
20260510061522 58 0.0 0.0 0.00 0.00 0.00 93 1013.0
20260510061023 58 0.0 0.0 0.00 0.00 0.00 93 1013.2
20260510060543 58 0.0 0.0 0.00 0.00 0.00 94 1013.3
20260510060017 58 0.0 0.0 0.00 0.00 0.00 93 1013.3
20260510055516 58 0.0 0.0 0.00 0.00 0.00 93 1013.2
20260510055016 58 0.0 0.0 0.00 0.00 0.00 93 1013.1
20260510054516 58 0.0 0.9 0.00 0.00 0.00 93 1013.1
20260510054036 58 0.0 0.9 0.00 0.00 0.00 93 1013.1
20260510053516 59 0.0 0.0 0.00 0.00 0.00 93 1013.0
20260510053016 59 0.0 0.0 0.00 0.00 0.00 93 1013.3
20260510052516 59 0.0 0.0 0.00 0.00 0.00 93 1013.3
20260510052016 59 0.0 0.0 0.00 0.00 0.00 93 1013.4
20260510051517 59 0.0 1.7 0.00 0.00 0.00 93 1013.3
20260510051016 59 0.0 0.0 0.00 0.00 0.00 92 1013.3
20260510050516 59 0.0 0.0 0.00 0.00 0.00 92 1013.3
20260510050016 59 0.0 0.9 0.00 0.00 0.00 92 1013.4
20260510045536 59 0.0 0.9 0.00 0.00 0.00 92 1013.2
20260510045036 59 0.0 0.0 0.00 0.00 0.00 92 1013.2
20260510044516 60 0.0 0.0 0.00 0.00 0.00 92 1013.2
20260510044016 60 0.0 0.0 0.00 0.00 0.00 92 1013.3
20260510043516 60 0.0 0.0 0.00 0.00 0.00 92 1013.5
20260510043016 60 0.0 0.0 0.00 0.00 0.00 91 1013.5
20260510042516 60 0.0 0.0 0.00 0.00 0.00 91 1013.5
20260510042016 60 0.0 0.0 0.00 0.00 0.00 91 1013.5
20260510041516 60 0.0 0.9 0.00 0.00 0.00 91 1013.4
20260510041016 60 0.0 0.9 0.00 0.00 0.00 91 1013.4
20260510040516 60 0.0 0.0 0.00 0.00 0.00 91 1013.3
20260510040016 61 0.0 0.0 0.00 0.00 0.00 91 1013.2
20260510035515 61 0.0 0.0 0.00 0.00 0.00 91 1013.4
20260510035015 61 0.0 0.0 0.00 0.00 0.00 90 1013.4
20260510034516 61 0.0 0.0 0.00 0.00 0.00 90 1013.3
20260510034015 61 0.0 0.0 0.00 0.00 0.00 90 1013.4
20260510033515 61 0.0 0.0 0.00 0.00 0.00 90 1013.4
20260510033015 61 0.0 0.0 0.00 0.00 0.00 90 1013.3
20260510032515 62 0.0 0.0 0.00 0.00 0.00 89 1013.4
20260510032035 62 0.0 0.0 0.00 0.00 0.00 89 1013.5
20260510031517 62 0.0 0.0 0.00 0.00 0.00 89 1013.3
20260510031017 62 0.0 0.0 0.00 0.00 0.00 89 1013.3
20260510030517 62 0.0 0.0 0.00 0.00 0.00 88 1013.4
20260510030017 62 0.0 0.0 0.00 0.00 0.00 88 1013.3
20260510025517 62 0.0 0.0 0.00 0.00 0.00 88 1013.3
20260510025017 62 0.0 0.0 0.00 0.00 0.00 88 1013.3
20260510024517 62 0.0 0.0 0.00 0.00 0.00 87 1013.3
20260510024017 63 0.0 0.0 0.00 0.00 0.00 87 1013.3
20260510023537 63 0.0 0.0 0.00 0.00 0.00 87 1013.2
20260510023017 63 0.0 0.0 0.00 0.00 0.00 87 1013.2
20260510022517 63 0.0 0.0 0.00 0.00 0.00 86 1013.1
20260510022017 63 0.0 0.0 0.00 0.00 0.00 86 1013.0
20260510021517 63 0.0 0.9 0.00 0.00 0.00 86 1013.0
20260510021037 64 0.0 0.0 0.00 0.00 0.00 85 1012.8
20260510020517 64 0.0 0.0 0.00 0.00 0.00 85 1012.8
20260510020017 64 0.0 0.0 0.00 0.00 0.00 84 1012.8
20260510015537 64 0.0 0.0 0.00 0.00 0.00 84 1012.7
20260510015017 64 0.0 0.0 0.00 0.00 0.00 84 1012.7
20260510014537 65 0.0 0.0 0.00 0.00 0.00 84 1012.7
20260510014017 65 0.0 0.0 0.00 0.00 0.00 83 1012.6
20260510013517 65 0.0 0.9 0.00 0.00 0.00 83 1012.4
20260510013017 65 0.0 0.9 0.00 0.00 0.00 83 1012.3
20260510012517 65 0.0 0.9 0.00 0.00 0.00 83 1012.4
20260510012017 65 0.0 0.9 0.00 0.00 0.00 82 1012.2
20260510011537 65 0.0 0.9 0.00 0.00 0.00 82 1012.1
20260510011017 66 0.0 0.9 0.00 0.00 0.00 82 1011.9
20260510010517 66 0.0 0.9 0.00 0.00 0.00 81 1011.9
20260510010017 66 0.0 0.0 0.00 0.00 0.00 81 1011.9
20260510005517 67 0.0 0.9 0.00 0.00 0.00 80 1011.7
20260510005017 67 0.0 0.9 0.00 0.00 0.00 80 1011.5
20260510004517 67 0.0 0.9 0.00 0.00 0.00 79 1011.5
20260510004017 68 0.0 0.9 0.00 0.00 0.00 79 1011.4
20260510003537 68 0.0 0.9 0.00 0.00 0.00 78 1011.3
20260510003017 68 0.0 0.0 0.00 0.00 0.00 78 1011.2
20260510002517 68 0.0 0.0 0.00 0.00 0.00 78 1011.2
20260510002037 68 0.0 0.9 0.00 0.00 0.00 77 1011.4
20260510001517 69 0.0 0.9 0.00 0.00 0.00 77 1011.3
20260510001017 69 0.0 0.0 0.00 0.00 0.00 76 1011.0
20260510000517 69 0.0 2.6 0.00 0.00 0.00 76 1011.0
20260510000017 69 0.0 0.9 0.00 0.00 0.00 76 1010.8
20260509235517 70 0.0 0.9 0.00 0.00 0.00 75 1010.8
20260509235017 70 0.0 0.0 0.00 0.00 0.00 75 1011.0
20260509234517 70 0.0 0.0 0.00 0.00 0.00 75 1011.0
20260509234017 70 0.0 0.9 0.00 0.00 0.00 74 1011.0
20260509233537 70 0.0 0.9 0.00 0.00 0.00 74 1010.9
20260509233017 71 0.0 1.7 0.00 0.00 0.00 74 1010.6
20260509232517 71 0.0 4.3 0.00 0.00 0.00 73 1010.7
20260509232017 71 0.0 3.5 0.00 0.00 0.00 73 1010.5
20260509231517 71 0.0 1.7 0.00 0.00 0.00 74 1010.4
20260509231037 71 0.0 2.6 0.00 0.00 0.00 73 1010.5
20260509230517 72 270 0.9 3.5 0.00 0.00 0.00 74 1010.5
20260509230036 72 0.0 2.6 0.00 0.00 0.00 73 1010.4
20260509225517 72 0.0 1.7 0.00 0.00 0.00 73 1010.5
20260509225017 72 90 0.9 3.5 0.00 0.00 0.00 72 1010.3
20260509224517 72 90 0.9 2.6 0.00 0.00 0.00 72 1010.3
20260509224017 72 135 0.9 2.6 0.00 0.00 0.00 73 1010.2
20260509223517 72 0.0 1.7 0.00 0.00 0.00 73 1010.2
20260509223036 72 0.0 1.7 0.00 0.00 0.00 72 1010.2
20260509222517 72 0.0 1.7 0.00 0.00 0.00 72 1010.2
20260509222017 72 0.0 2.6 0.00 0.00 0.00 72 1010.2
20260509221536 72 0.0 2.6 0.00 0.00 0.00 71 1010.1
20260509221017 73 0.0 0.9 0.00 0.00 0.00 71 1010.2
20260509220517 73 0.0 2.6 0.00 0.00 0.00 70 1010.3
20260509220017 73 158 0.9 3.5 0.00 0.00 0.00 69 1010.3
20260509215517 73 248 0.9 4.3 0.00 0.00 0.00 69 1010.2
20260509215017 73 0.0 1.7 0.00 0.00 0.00 70 1010.3
20260509214517 73 248 0.9 6.1 0.00 0.00 0.00 68 1010.1
20260509214017 73 248 0.9 5.2 0.00 0.00 0.00 68 1010.0
20260509213536 73 270 0.9 6.1 0.00 0.00 0.00 68 1010.2
20260509213037 73 248 0.9 6.1 0.00 0.00 0.00 68 1010.2
20260509212517 73 68 0.9 7.0 0.00 0.00 0.00 68 1010.0
20260509212017 74 135 0.9 3.5 0.00 0.00 0.00 68 1010.1
20260509211517 74 180 0.9 3.5 0.00 0.00 0.00 66 1010.3
20260509211016 74 248 0.9 6.1 0.00 0.00 0.00 66 1010.2
20260509210516 75 270 0.9 3.5 0.00 0.00 0.00 64 1010.2
20260509210016 75 315 3.5 7.8 0.00 0.00 0.00 63 1010.0
20260509205517 75 293 2.6 7.8 0.00 0.00 0.00 65 1010.1
20260509205036 75 293 2.6 8.7 0.00 0.00 0.00 65 1010.2
20260509204517 74 113 0.9 3.5 0.00 0.00 0.00 69 1009.9
20260509204016 74 135 0.9 3.5 0.00 0.00 0.00 70 1009.9
20260509203516 74 135 0.9 1.7 0.00 0.00 0.00 68 1010.0
20260509203017 74 113 0.9 6.1 0.00 0.00 0.00 67 1010.1
20260509202516 75 293 1.7 6.1 0.00 0.00 0.00 68 1010.2